Location: Brno
(49.2000°N, 16.6330°E)
Time: 04:44:19
(UTC+02:00)

BREEZE M DEB (TANK) - Visible Passes

Search period start: 30 March 2017 00:00
Search period end: 09 April 2017 00:00
Orbit: 299 x 11980 km, 49.5° (Epoch: 28 March)

Date Brightness Start Highest point End Pass type
(mag) Time Alt. Az. Time Alt. Az. Time Alt. Az.
30 Mar 4.0 04:16:06 10° WNW 04:33:41 74° SSW 04:38:20 10° ESE visible
30 Mar 6.4 22:32:16 10° SW 23:37:40 70° SSE 23:51:06 10° ENE visible
31 Mar 4.4 03:22:27 10° W 03:45:28 86° SSW 03:50:56 10° ESE visible
31 Mar 6.8 21:37:42 10° SSW 22:47:28 63° SE 23:03:10 10° ENE visible
01 Apr 4.9 02:27:00 10° W 02:56:55 89° N 03:03:25 10° E visible
01 Apr 7.0 20:45:22 10° SSW 21:56:56 55° SE 22:15:02 10° ENE visible
02 Apr 5.3 01:29:42 10° W 02:08:03 89° N 02:15:47 10° E visible
02 Apr 4.5 06:02:17 10° WNW 06:09:45 24° WSW 06:13:08 10° S visible
02 Apr 7.1 19:55:25 10° S 21:06:09 48° SE 21:26:39 10° ENE visible
03 Apr 5.7 00:30:58 10° WSW 01:18:53 89° S 01:28:03 10° E visible
03 Apr 4.1 05:10:56 10° WNW 05:22:32 40° SW 05:26:31 10° SSE visible
03 Apr 7.3 19:08:03 10° S 20:15:18 40° SE 20:37:53 10° ENE visible
03 Apr 6.0 23:31:51 10° WSW 00:29:22 84° SSE 00:40:15 10° ENE visible
04 Apr 4.0 04:18:54 10° WNW 04:34:53 59° SW 04:39:24 10° SE visible
04 Apr 6.4 22:33:37 10° SW 23:39:29 78° SSE 23:52:21 10° ENE visible
05 Apr 4.3 03:25:40 10° WNW 03:46:47 76° SSW 03:52:00 10° ESE visible
05 Apr 6.7 21:37:08 10° SW 22:49:11 71° SSE 23:04:19 10° ENE visible
06 Apr 4.7 02:30:47 10° W 02:58:16 86° SSW 03:04:25 10° ESE visible
06 Apr 7.0 20:42:50 10° SSW 21:58:30 64° SE 22:16:08 10° ENE visible
07 Apr 5.2 01:33:53 10° W 02:09:24 89° N 02:16:41 10° E visible
07 Apr 7.1 19:50:50 10° SSW 21:07:28 56° SE 21:27:45 10° ENE visible
08 Apr 5.6 00:35:05 10° WSW 01:20:09 89° N 01:28:50 10° E visible
08 Apr 4.6 05:12:46 10° WNW 05:22:28 27° WSW 05:26:23 10° S visible
08 Apr 7.2 19:01:15 10° S 20:16:15 49° SE 20:39:07 10° ENE visible
